Wind_Speed
35 36 38 39 40 42 44 46 48 49 50 52 54 55 56 55 55 52 47 52 52 52 52 52 52 55 57 58 59 60 59 57 56 54 51 50 49 45 43 42 41 39 38
32 35 38 40 41 43 44 46 48 51 53 56 57 58 59 61 61 61 61 56 57 55 56 57 57 56 56 55 56 57 59 57 57 56 56 53 51 46 45 44 43 41 39
39 41 43 46 48 50 53 55 57 56 55 55 56 59 62 66 67 68 70 72 70 68 65 63 64 62 63 57 52 53 53 55 57 57 58 57 53 50 48 46 44 43 42
46 49 51 53 55 58 60 62 64 64 64 63 60 58 61 64 68 71 71 73 76 77 75 71 68 65 66 65 63 59 57 55 53 56 57 58 56 52 50 48 47 45 45
52 54 56 58 60 62 64 65 66 66 63 60 59 59 60 61 63 69 73 73 72 75 77 78 78 76 73 73 72 70 67 64 62 59 60 57 56 55 51 48 49 49 47
56 58 59 60 62 65 67 69 70 66 62 61 61 62 64 65 66 68 69 69 71 76 81 83 84 83 81 78 78 78 76 73 72 66 63 63 59 55 53 49 50 52 50
59 61 63 65 68 70 71 72 72 71 69 68 68 69 70 72 74 76 77 76 77 78 80 84 87 89 89 89 87 84 82 80 78 75 67 66 65 61 55 52 48 50 52
63 64 67 70 72 74 75 76 78 79 79 76 73 72 75 80 84 85 82 78 77 77 79 85 90 93 94 94 95 94 89 86 84 80 75 70 66 67 61 57 54 50 51
64 67 70 74 75 75 76 79 80 78 75 74 75 79 86 87 86 83 80 79 80 80 80 81 83 88 95 100 102 100 98 97 91 85 81 77 71 70 68 61 59 54 50
68 70 73 74 75 77 78 78 77 77 78 79 84 90 89 84 81 79 81 82 81 80 78 77 77 80 87 96 101 103 103 103 100 94 88 81 76 71 68 67 62 60 53
71 74 74 76 77 78 81 80 80 83 84 90 91 87 85 84 83 82 81 77 72 66 61 59 60 63 68 79 91 99 104 101 103 100 98 91 83 78 73 70 68 64 59
73 73 75 78 79 80 78 79 82 89 93 93 90 89 89 86 82 73 69 65 64 62 58 54 52 54 58 63 71 81 91 102 105 102 102 97 92 86 79 73 71 68 64
72 75 78 80 80 79 80 83 89 94 92 92 89 84 78 73 68 63 62 61 61 58 59 56 51 52 55 57 61 68 70 80 94 103 105 100 98 90 87 80 76 72 69
73 77 80 80 78 81 85 92 94 94 90 85 80 76 73 71 68 66 63 59 58 58 58 56 52 49 47 50 55 59 60 66 71 82 95 103 102 95 89 83 78 73 71
78 80 81 78 80 84 89 92 91 86 84 80 74 68 65 61 59 58 58 57 56 54 55 55 51 46 45 47 48 48 48 52 55 58 67 80 98 98 93 89 77 76 75
78 79 75 77 82 88 90 87 80 71 70 69 66 62 58 55 54 51 51 53 52 50 50 51 47 48 43 42 44 43 39 43 42 42 45 49 65 93 87 70 86 83 78
78 74 75 78 85 88 86 79 66 66 65 65 62 59 57 52 49 49 48 49 49 45 45 46 44 41 40 37 40 40 39 40 38 35 36 38 43 64 60 54 68 79 76
73 74 77 82 85 84 77 68 66 66 64 63 60 56 54 49 44 41 41 40 44 44 42 42 42 39 33 32 32 39 41 38 35 34 32 33 41 44 46 64 73 76 65
74 75 80 84 84 76 71 62 64 64 63 61 59 56 52 48 41 37 41 42 43 44 40 38 39 34 31 35 33 36 41 37 36 36 35 35 50 57 56 43 60 65 62
72 76 81 83 77 71 65 64 63 64 64 60 57 54 52 48 45 39 35 38 39 38 34 34 34 31 30 31 29 35 38 39 39 40 37 41 56 66 61 47 41 41 44
70 73 78 78 71 65 62 64 68 66 63 59 55 52 49 46 41 39 34 30 30 30 29 27 27 23 23 25 31 37 37 28 29 30 32 54 59 59 54 52 41 40 42
68 73 77 71 62 61 62 68 64 58 56 54 52 48 46 41 37 32 26 24 23 25 20 19 19 20 21 28 27 17 17 23 21 19 30 63 50 47 48 42 44 42 38
70 75 73 63 57 59 61 67 57 56 57 49 46 45 42 39 34 26 23 19 19 14 16 17 13 16 24 11 6 16 16 17 21 23 52 54 45 44 45 48 44 40 39
70 73 67 57 55 58 60 63 58 58 56 45 42 41 37 36 28 18 14 11 11 14 14 10 13 16 2 4 10 12 14 17 22 48 49 47 54 51 51 41 39 38 36
69 69 60 52 55 56 60 60 58 60 48 40 35 34 30 28 22 10 2 11 13 11 9 10 5 4 6 11 16 17 19 24 28 34 46 44 45 43 39 40 39 36 32
67 62 56 52 55 57 60 57 57 54 49 34 25 26 23 19 13 4 10 12 9 6 6 14 10 15 18 21 22 21 23 26 25 28 36 43 40 41 43 40 34 30 25
Wind_Direction
292 292 292 292 292 291 290 289 287 286 285 284 282 279 276 272 265 263 263 257 256 257 259 261 261 262 262 259 259 260 260 259 259 259 260 260 261 261 263 263 262 261 261
299 298 299 300 299 298 295 291 288 287 285 283 281 277 275 274 271 266 258 256 253 258 261 259 260 259 260 262 262 260 259 258 259 258 259 258 259 260 259 261 262 260 260
310 308 306 305 303 302 301 299 298 296 292 288 281 277 275 273 269 266 264 262 258 254 255 257 259 260 257 257 260 262 261 258 258 257 257 256 256 256 257 257 259 260 259
311 309 307 306 305 304 302 301 300 298 296 293 288 280 274 269 269 270 268 264 264 261 258 258 258 257 256 254 255 256 258 258 259 257 255 255 254 253 253 256 256 257 258
307 306 306 305 305 304 303 302 301 299 296 292 288 285 281 279 274 270 269 269 269 267 267 266 262 259 256 255 255 257 257 258 255 258 255 252 252 252 251 250 253 252 254
306 305 304 304 303 302 301 300 300 297 294 292 290 288 286 284 282 279 276 272 270 270 271 270 269 267 263 258 254 254 256 256 259 257 257 253 251 250 250 248 249 251 252
305 304 305 304 303 302 301 299 298 296 293 293 291 287 285 287 287 286 282 276 272 269 264 263 263 263 265 266 264 259 256 255 255 257 256 255 252 250 250 249 248 251 251
305 306 306 305 304 302 301 301 299 297 296 295 291 290 290 291 290 287 283 279 274 269 265 262 259 258 258 258 260 262 260 258 256 253 253 253 251 252 249 250 247 246 250
306 305 305 305 304 304 303 302 302 300 298 296 295 297 297 294 290 287 284 280 278 276 272 268 264 260 259 258 258 256 257 258 256 254 252 251 249 248 250 248 248 245 246
307 307 307 306 306 306 304 302 301 300 299 299 299 299 296 294 291 288 287 284 283 280 277 273 268 263 259 257 256 255 254 254 255 255 253 249 247 243 244 249 249 247 244
308 307 308 309 307 305 305 306 307 306 304 304 301 298 297 295 292 289 287 286 283 279 273 268 266 264 260 256 254 253 252 251 252 250 251 251 248 243 241 244 248 248 245
308 309 309 307 306 307 307 306 307 308 307 304 302 299 296 293 291 289 284 280 278 276 271 271 272 272 270 266 260 256 253 249 248 247 247 246 247 247 240 242 244 246 246
308 307 307 308 307 306 308 310 310 308 306 304 301 299 296 294 290 285 280 277 275 271 269 271 274 275 273 269 267 261 256 252 248 246 246 244 245 243 244 241 244 242 246
305 307 309 309 310 312 314 314 313 310 308 305 303 299 295 290 287 284 283 280 276 271 266 266 267 268 265 264 263 266 259 254 249 247 245 243 243 242 245 243 240 239 242
311 312 311 312 313 315 316 314 312 313 312 310 306 301 296 291 287 282 277 275 271 269 265 262 262 261 259 260 269 268 257 259 254 253 249 245 241 239 241 242 239 238 239
310 312 313 314 316 317 315 316 317 319 319 317 312 306 300 294 288 283 278 273 271 269 265 262 260 254 254 265 271 260 254 259 254 250 247 242 243 236 238 242 242 241 234
314 314 314 318 319 317 318 320 320 319 323 326 322 315 307 298 293 285 280 274 271 268 265 259 258 249 250 258 264 258 252 255 252 246 241 240 237 237 212 210 225 235 233
313 315 318 320 319 320 320 320 320 323 323 324 326 319 314 304 296 284 279 279 275 266 262 257 254 246 246 257 273 258 251 251 244 243 234 227 212 206 205 221 223 227 229
316 319 321 321 322 321 321 321 322 320 321 321 321 322 316 309 301 289 277 279 276 269 262 254 249 242 242 256 274 263 251 248 244 248 233 218 200 197 200 207 213 224 230
319 320 321 323 323 322 322 322 321 318 318 318 318 317 320 311 301 295 284 278 271 265 258 248 243 238 243 261 271 258 253 249 253 248 238 215 197 197 210 208 217 216 211
320 321 323 323 323 323 323 323 322 321 318 316 316 316 317 316 306 298 292 277 269 264 256 240 234 242 253 254 250 251 259 254 242 240 225 189 182 185 195 198 206 196 198
321 322 323 324 322 322 324 327 326 327 324 315 316 317 317 319 311 299 290 279 270 265 241 215 222 242 257 253 257 256 264 266 251 209 211 189 175 171 166 175 182 180 192
322 324 324 325 322 325 326 329 326 326 324 321 316 319 320 323 319 301 285 277 275 232 203 213 225 243 249 262 250 251 229 197 200 182 185 167 153 161 168 169 170 179 189
324 324 326 325 324 326 327 327 324 325 327 323 320 323 323 329 329 313 292 271 198 182 192 210 226 242 222 216 225 190 173 175 162 173 169 170 169 171 164 161 175 179 187
324 325 326 324 327 328 328 327 327 331 330 322 323 325 328 338 344 329 238 163 165 164 183 205 180 105 155 172 166 139 136 141 148 153 167 170 167 163 166 170 176 182 186
326 327 326 324 326 327 329 330 331 335 332 326 328 335 334 346 5 76 144 149 136 142 129 109 119 137 148 154 155 144 147 156 168 165 163 164 163 168 170 172 171 175 181
Height
5849 5846 5843 5840 5837 5834 5831 5827 5823 5820 5816 5812 5809 5806 5805 5803 5802 5799 5796 5794 5793 5792 5791 5788 5786 5783 5783 5783 5783 5784 5786 5787 5788 5790 5792 5795 5797 5801 5802 5803 5804 5806 5807
5841 5838 5834 5831 5827 5823 5819 5816 5812 5808 5804 5801 5797 5793 5790 5787 5784 5782 5780 5778 5777 5776 5775 5775 5774 5772 5770 5769 5770 5771 5771 5772 5774 5776 5777 5782 5785 5788 5789 5791 5793 5795 5797
5831 5828 5824 5820 5816 5812 5807 5802 5797 5793 5789 5784 5780 5777 5773 5769 5766 5764 5760 5758 5757 5757 5757 5756 5757 5756 5757 5757 5756 5756 5757 5758 5759 5761 5763 5766 5771 5773 5776 5778 5781 5783 5785
5821 5817 5812 5807 5803 5798 5792 5787 5782 5777 5772 5767 5762 5759 5753 5750 5746 5742 5739 5737 5735 5733 5733 5733 5735 5736 5737 5740 5741 5742 5743 5743 5746 5746 5749 5751 5756 5760 5764 5766 5769 5771 5773
5812 5806 5801 5795 5790 5784 5779 5773 5767 5760 5754 5749 5744 5739 5735 5732 5729 5724 5721 5717 5716 5713 5710 5708 5710 5714 5717 5719 5721 5722 5725 5727 5728 5733 5734 5737 5741 5745 5750 5754 5755 5757 5760
5798 5792 5787 5782 5776 5770 5764 5758 5751 5744 5738 5732 5726 5721 5715 5710 5707 5703 5701 5699 5698 5694 5690 5688 5688 5688 5691 5695 5699 5701 5705 5707 5709 5715 5718 5721 5725 5729 5733 5737 5743 5743 5747
5784 5778 5771 5765 5758 5752 5746 5740 5733 5726 5719 5712 5706 5699 5693 5688 5682 5678 5674 5673 5671 5670 5669 5665 5666 5667 5667 5668 5671 5676 5682 5686 5691 5695 5700 5702 5708 5712 5718 5721 5727 5731 5733
5770 5763 5756 5748 5741 5733 5726 5718 5711 5704 5696 5689 5682 5675 5668 5663 5656 5650 5645 5642 5640 5641 5640 5638 5639 5641 5641 5644 5646 5648 5654 5660 5666 5673 5679 5684 5691 5694 5700 5706 5709 5716 5721
5756 5749 5740 5731 5722 5714 5706 5696 5688 5679 5673 5666 5659 5652 5642 5633 5627 5621 5616 5612 5609 5609 5609 5610 5610 5612 5613 5615 5617 5621 5627 5629 5637 5647 5655 5662 5671 5676 5681 5688 5694 5699 5706
5742 5732 5722 5713 5704 5694 5686 5677 5668 5657 5650 5642 5633 5625 5613 5604 5597 5593 5587 5582 5580 5578 5576 5577 5578 5581 5583 5583 5586 5592 5598 5602 5612 5619 5629 5639 5648 5656 5662 5669 5676 5683 5689
5725 5715 5705 5695 5685 5676 5666 5656 5645 5635 5627 5616 5605 5596 5586 5576 5570 5565 5560 5555 5551 5549 5549 5549 5551 5552 5553 5554 5555 5562 5569 5575 5583 5592 5601 5614 5623 5633 5642 5649 5658 5666 5673
5708 5698 5689 5679 5669 5659 5650 5640 5629 5614 5601 5587 5577 5568 5558 5550 5543 5537 5534 5531 5528 5526 5525 5527 5529 5529 5529 5530 5532 5533 5536 5545 5554 5563 5572 5585 5597 5610 5621 5631 5640 5649 5656
5693 5685 5674 5663 5652 5641 5630 5618 5606 5590 5576 5561 5549 5539 5530 5522 5518 5514 5510 5508 5506 5507 5505 5505 5506 5507 5508 5508 5509 5509 5512 5514 5522 5532 5543 5559 5568 5587 5599 5613 5621 5632 5640
5681 5669 5657 5644 5632 5620 5606 5591 5578 5562 5547 5534 5524 5514 5506 5498 5494 5491 5489 5487 5485 5486 5487 5487 5488 5489 5491 5491 5492 5490 5491 5492 5498 5506 5516 5530 5544 5563 5580 5591 5602 5615 5625
5661 5648 5636 5625 5614 5602 5587 5571 5556 5540 5523 5510 5500 5490 5481 5475 5470 5467 5465 5463 5463 5465 5466 5468 5470 5472 5474 5476 5475 5474 5474 5475 5480 5486 5495 5505 5520 5539 5555 5570 5584 5597 5610
5649 5636 5624 5611 5597 5581 5566 5551 5536 5520 5505 5492 5479 5469 5461 5455 5450 5447 5444 5442 5443 5444 5445 5449 5452 5455 5458 5460 5460 5459 5461 5462 5466 5473 5480 5488 5498 5518 5538 5553 5566 5580 5595
5630 5618 5608 5595 5579 5562 5544 5531 5518 5504 5490 5475 5462 5451 5441 5436 5432 5428 5427 5426 5425 5426 5429 5432 5435 5439 5444 5446 5446 5446 5448 5450 5455 5462 5468 5475 5484 5499 5526 5538 5550 5563 5580
5615 5603 5589 5578 5562 5544 5529 5515 5501 5488 5475 5462 5449 5437 5426 5419 5415 5412 5411 5410 5409 5410 5412 5417 5421 5425 5430 5433 5433 5433 5435 5439 5445 5450 5457 5463 5473 5489 5508 5524 5533 5551 5569
5598 5584 5572 5557 5543 5526 5514 5503 5492 5477 5462 5449 5437 5425 5414 5406 5401 5398 5397 5396 5394 5394 5398 5403 5409 5414 5419 5420 5421 5420 5423 5428 5434 5439 5445 5453 5463 5479 5497 5508 5527 5542 5559
5585 5571 5557 5541 5526 5513 5500 5489 5477 5463 5451 5438 5425 5413 5402 5394 5388 5384 5381 5380 5379 5382 5386 5391 5398 5404 5408 5410 5410 5410 5412 5417 5422 5426 5431 5442 5452 5469 5485 5501 5520 5537 5552
5576 5564 5548 5528 5512 5500 5489 5477 5463 5449 5437 5426 5414 5403 5392 5383 5376 5372 5369 5367 5369 5373 5377 5383 5390 5396 5399 5399 5399 5398 5400 5404 5409 5413 5420 5431 5442 5458 5478 5499 5515 5531 5546
5566 5553 5536 5520 5505 5492 5479 5466 5451 5439 5426 5414 5404 5393 5383 5374 5367 5363 5361 5360 5363 5367 5371 5378 5385 5388 5389 5388 5390 5390 5392 5394 5399 5404 5411 5423 5443 5460 5476 5494 5512 5528 5543
5550 5536 5523 5510 5495 5482 5468 5455 5442 5430 5417 5405 5395 5385 5375 5367 5359 5355 5354 5356 5358 5363 5369 5374 5379 5381 5380 5381 5384 5387 5388 5393 5397 5404 5413 5428 5446 5461 5477 5494 5510 5524 5537
5539 5525 5510 5498 5487 5474 5460 5445 5433 5421 5408 5397 5388 5379 5370 5362 5354 5350 5350 5352 5356 5363 5367 5372 5374 5375 5377 5380 5382 5387 5391 5396 5401 5407 5420 5435 5449 5461 5478 5495 5510 5522 5534
5528 5513 5500 5489 5478 5466 5453 5439 5425 5412 5399 5389 5381 5374 5367 5361 5354 5350 5351 5354 5359 5365 5368 5370 5372 5374 5376 5380 5385 5391 5397 5404 5412 5422 5433 5444 5456 5469 5483 5499 5510 5521 5531
5518 5504 5491 5480 5470 5458 5445 5432 5418 5404 5391 5383 5377 5372 5366 5363 5358 5356 5357 5359 5364 5367 5368 5372 5374 5375 5380 5385 5392 5398 5404 5412 5420 5429 5440 5450 5461 5476 5489 5499 5510 5520 5530